Location: Wildcat Hills Observatory
(41.6350°N, 103.6812°W)
Time: 22:48:07
(UTC-06:00)

ATLAS 5 CENTAUR R/B - Pass Details

Date: 23 June 2018
Orbit: 600 x 1060 km, 63.4° (Epoch: 13 July)

Event Time Altitude Azimuth Distance (km) Brightness Sun altitude
Exits shadow 23:37:12 11° 240° (WSW) 1,910 4.0 -22.4°
Maximum altitude 23:41:16 44° 312° (NW) 915 2.8 -22.6°
Drops below altitude 10° 23:46:01 10° 25° (NNE) 2,204 5.0 -22.9°
Sets 23:48:38 0° 32° (NNE) 3,205 5.8 -23.0°
